Date String (YYYY-MM-DD hh:mm:ss) UTC,Instrument flags,absolute air pressure of the measurement (hPa),sample flow rate (lpm),inlet stack bypass flow (lpm),air temperature of the measurement (°C),ambient temperature measured by the external sensor (°C),aerosol sample conditioner tube jacket temperature (°C),OPC LED temperature (°C),internal box temperature (°C),relative humidity of the measurement (%),span deviation,mass concentration of particles derived from Lorenz-Mie calculation of OPC scattering (μg/m³),mass concentration of particles derived from Lorenz-Mie calculation of OPC scattering (μg/m³),mass concentration of particles derived from Lorenz-Mie calculation of OPC scattering (μg/m³)
DateTimeUTC,F1_M11,P_M11,Q1_M11,Q2_M11,T1_M11,T2_M11,T3_M11,T4_M11,T5_M11,U1_M11,ZSPAN_M11,X0_M11,X2_M11,X1_M11
2023-07-10 20:00:00,SystemResetWarning,0829.7,5.00,000.00,028.6,027.3,000.0,036.9,030.3,18.6,0000.0,0007.36,0003.76,0003.42
2023-07-10 20:01:00,SystemResetWarning,0829.7,4.99,000.00,028.7,027.5,000.0,037.0,030.4,18.0,0000.0,0007.18,0003.74,0003.39
2023-07-10 20:02:00,SystemResetWarning,0829.6,4.99,000.00,028.7,026.7,000.0,036.9,030.3,18.2,0000.0,0007.10,0003.72,0003.36
2023-07-10 20:03:00,SystemResetWarning,0829.6,5.00,000.00,028.7,025.2,000.0,036.8,030.2,17.8,0000.0,0007.62,0003.71,0003.33
2023-07-10 20:04:00,SystemResetWarning,0829.6,5.02,000.00,028.6,025.0,000.0,036.8,030.0,17.2,0000.0,0008.28,0003.68,0003.29
2023-07-10 20:05:00,SystemResetWarning,0829.5,5.00,000.00,028.6,025.3,000.0,036.8,030.0,17.3,0000.0,0008.37,0003.65,0003.25
2023-07-10 20:06:00,SystemResetWarning,0829.6,4.99,000.00,028.5,025.7,000.0,036.8,030.0,18.0,0000.0,0008.37,0003.64,0003.22
2023-07-10 20:07:00,SystemResetWarning,0829.6,5.01,000.00,028.5,026.2,000.0,036.9,030.1,18.2,0000.0,0008.34,0003.64,0003.19
2023-07-10 20:08:00,SystemResetWarning,0829.5,5.00,000.00,028.6,026.6,000.0,036.9,030.2,18.5,0000.0,0008.42,0003.64,0003.17
2023-07-10 20:09:00,SystemResetWarning,0829.5,4.99,000.00,028.6,027.0,000.0,036.9,030.3,18.7,0000.0,0008.49,0003.65,0003.16
2023-07-10 20:10:00,SystemResetWarning,0829.5,5.00,000.00,028.7,027.3,000.0,036.9,030.4,17.9,0000.0,0008.58,0003.65,0003.16
2023-07-10 20:11:00,SystemResetWarning,0829.6,5.00,000.00,028.7,027.3,000.0,036.9,030.4,17.9,0000.0,0008.06,0003.62,0003.15
2023-07-10 20:12:00,SystemResetWarning,0829.5,4.98,000.00,028.7,026.0,000.0,036.9,030.2,17.7,0000.0,0007.96,0003.58,0003.14
2023-07-10 20:13:00,SystemResetWarning,0829.5,5.01,000.00,028.6,024.9,000.0,036.8,030.0,17.2,0000.0,0007.83,0003.57,0003.14
2023-07-10 20:14:00,SystemResetWarning,0829.5,5.01,000.00,028.6,025.1,000.0,036.8,029.9,17.3,0000.0,0007.69,0003.57,0003.14
2023-07-10 20:15:00,SystemResetWarning,0829.5,5.00,000.00,028.5,025.4,000.0,036.8,029.9,17.5,0000.0,0006.74,0003.58,0003.15
2023-07-10 20:16:00,SystemResetWarning,0829.5,5.00,000.00,028.5,025.8,000.0,036.8,030.0,17.4,0000.0,0007.76,0003.57,0003.15
2023-07-10 20:17:00,SystemResetWarning,0829.5,5.00,000.00,028.5,026.3,000.0,036.9,030.1,18.2,0000.0,0007.96,0003.56,0003.16
2023-07-10 20:18:00,SystemResetWarning,0829.5,4.99,000.00,028.6,026.7,000.0,036.9,030.2,17.6,0000.0,0008.27,0003.55,0003.16
2023-07-10 20:19:00,SystemResetWarning,0829.6,5.00,000.00,028.6,027.0,000.0,036.9,030.3,17.4,0000.0,0008.45,0003.56,0003.17
2023-07-10 20:20:00,SystemResetWarning,0829.6,5.00,000.00,028.7,027.3,000.0,036.9,030.4,17.3,0000.0,0008.44,0003.56,0003.17
2023-07-10 20:21:00,SystemResetWarning,0829.7,4.99,000.00,028.7,026.8,000.0,036.9,030.4,18.4,0000.0,0008.50,0003.59,0003.17
2023-07-10 20:22:00,SystemResetWarning,0829.6,5.00,000.00,028.6,025.3,000.0,036.8,030.1,18.6,0000.0,0008.54,0003.61,0003.18
2023-07-10 20:23:00,SystemResetWarning,0829.6,5.01,000.00,028.6,024.8,000.0,036.7,030.0,18.7,0000.0,0009.03,0003.63,0003.19
2023-07-10 20:24:00,SystemResetWarning,0829.6,5.00,000.00,028.5,025.2,000.0,036.8,029.9,18.5,0000.0,0009.01,0003.64,0003.19
2023-07-10 20:25:00,SystemResetWarning,0829.6,5.01,000.00,028.5,025.5,000.0,036.8,029.9,20.4,0000.0,0008.78,0003.65,0003.19
2023-07-10 20:26:00,SystemResetWarning,0829.5,5.00,000.00,028.5,026.0,000.0,036.8,030.0,21.7,0000.0,0008.90,0003.66,0003.20
2023-07-10 20:27:00,SystemResetWarning,0829.5,5.01,000.00,028.5,026.4,000.0,036.8,030.1,20.9,0000.0,0008.26,0003.65,0003.20
2023-07-10 20:28:00,SystemResetWarning,0829.6,4.99,000.00,028.6,026.8,000.0,036.9,030.2,20.0,0000.0,0008.00,0003.64,0003.19
2023-07-10 20:29:00,SystemResetWarning,0829.7,4.99,000.00,028.6,027.1,000.0,036.9,030.3,20.0,0000.0,0007.55,0003.61,0003.19
2023-07-10 20:30:00,SystemResetWarning,0829.7,5.00,000.00,028.7,027.3,000.0,036.9,030.4,18.9,0000.0,0007.31,0003.61,0003.20
2023-07-10 20:31:00,SystemResetWarning,0829.6,5.00,000.00,028.7,026.2,000.0,036.8,030.3,19.4,0000.0,0007.30,0003.62,0003.21
2023-07-10 20:32:00,SystemResetWarning,0829.6,5.01,000.00,028.6,024.8,000.0,036.8,030.1,20.8,0000.0,0007.27,0003.63,0003.22
2023-07-10 20:33:00,SystemResetWarning,0829.6,5.01,000.00,028.6,024.9,000.0,036.7,030.0,20.2,0000.0,0007.18,0003.63,0003.22
2023-07-10 20:34:00,SystemResetWarning,0829.6,5.00,000.00,028.5,025.2,000.0,036.8,029.9,20.9,0000.0,0006.29,0003.63,0003.24
2023-07-10 20:35:00,SystemResetWarning,0829.6,4.99,000.00,028.5,025.6,000.0,036.8,029.9,21.8,0000.0,0007.12,0003.65,0003.27
2023-07-10 20:36:00,SystemResetWarning,0829.6,5.00,000.00,028.5,026.1,000.0,036.8,030.0,20.9,0000.0,0007.33,0003.68,0003.29
2023-07-10 20:37:00,SystemResetWarning,0829.6,5.01,000.00,028.5,026.5,000.0,036.8,030.1,21.5,0000.0,0007.31,0003.68,0003.31
2023-07-10 20:38:00,SystemResetWarning,0829.7,5.01,000.00,028.6,026.9,000.0,036.9,030.2,19.9,0000.0,0007.37,0003.70,0003.33
2023-07-10 20:39:00,SystemResetWarning,0829.7,5.00,000.00,028.6,027.2,000.0,036.9,030.3,22.7,0000.0,0008.21,0003.76,0003.36
2023-07-10 20:40:00,SystemResetWarning,0829.7,5.00,000.00,028.7,027.4,000.0,036.9,030.4,22.9,0000.0,0008.38,0003.83,0003.40
2023-07-10 20:41:00,SystemResetWarning,0829.7,4.98,000.00,028.7,026.5,000.0,036.9,030.3,21.4,0000.0,0008.39,0003.84,0003.41
2023-07-10 20:42:00,SystemResetWarning,0829.7,5.01,000.00,028.6,025.0,000.0,036.8,030.1,23.9,0000.0,0008.52,0003.87,0003.44
2023-07-10 20:43:00,SystemResetWarning,0829.7,5.01,000.00,028.6,024.9,000.0,036.7,030.0,25.4,0000.0,0008.52,0003.89,0003.46
2023-07-10 20:44:00,SystemResetWarning,0829.7,5.00,000.00,028.5,025.2,000.0,036.7,029.9,26.6,0000.0,0008.76,0003.92,0003.48
2023-07-10 20:45:00,SystemResetWarning,0829.7,5.00,000.00,028.5,025.7,000.0,036.8,030.0,27.2,0000.0,0009.07,0003.96,0003.51
2023-07-10 20:46:00,SystemResetWarning,0829.7,5.00,000.00,028.5,026.1,000.0,036.8,030.1,26.3,0000.0,0008.68,0003.98,0003.51
2023-07-10 20:47:00,SystemResetWarning,0829.7,5.00,000.00,028.5,026.5,000.0,036.8,030.1,25.4,0000.0,0008.99,0003.97,0003.51
2023-07-10 20:48:00,SystemResetWarning,0829.7,5.01,000.00,028.6,026.9,000.0,036.9,030.2,26.0,0000.0,0009.34,0004.04,0003.52
2023-07-10 20:49:00,SystemResetWarning,0829.7,5.00,000.00,028.6,027.2,000.0,036.9,030.3,25.9,0000.0,0009.57,0004.09,0003.55
2023-07-10 20:50:00,SystemResetWarning,0829.7,4.99,000.00,028.7,027.2,000.0,036.9,030.4,26.8,0000.0,0008.95,0004.14,0003.57
2023-07-10 20:51:00,SystemResetWarning,0829.7,4.99,000.00,028.7,025.7,000.0,036.8,030.2,26.6,0000.0,0009.03,0004.19,0003.59
2023-07-10 20:52:00,SystemResetWarning,0829.7,5.01,000.00,028.6,024.7,000.0,036.7,030.1,26.4,0000.0,0009.19,0004.27,0003.62
2023-07-10 20:53:00,SystemResetWarning,0829.7,5.01,000.00,028.5,024.9,000.0,036.7,029.9,25.5,0000.0,0009.86,0004.34,0003.65
2023-07-10 20:54:00,SystemResetWarning,0829.7,4.99,000.00,028.5,025.3,000.0,036.8,029.9,26.5,0000.0,0010.29,0004.39,0003.68
2023-07-10 20:55:00,SystemResetWarning,0829.7,5.00,000.00,028.5,025.8,000.0,036.8,030.0,26.5,0000.0,0011.68,0004.48,0003.71
2023-07-10 20:56:00,SystemResetWarning,0829.7,5.00,000.00,028.5,026.2,000.0,036.8,030.1,26.0,0000.0,0011.71,0004.50,0003.73
2023-07-10 20:57:00,SystemResetWarning,0829.8,4.99,000.00,028.5,026.6,000.0,036.9,030.2,26.3,0000.0,0011.78,0004.53,0003.75
2023-07-10 20:58:00,SystemResetWarning,0829.8,5.00,000.00,028.6,027.0,000.0,036.9,030.2,25.9,0000.0,0011.53,0004.60,0003.78
2023-07-10 20:59:00,SystemResetWarning,0829.8,5.01,000.00,028.6,027.3,000.0,036.9,030.3,26.5,0000.0,0011.84,0004.62,0003.80
